FENGYUN 1C DEB

Satellite information

Favourite Embed

Satellite Type and Status

DEBRISIN ORBIT

Key statistics

Satellite FENGYUN 1C DEB at a glance.

Uptime

9715

Days in orbit

Revolutions

≈ 14.3

Per day

Orbit

SSO

Sun Synchronous Orbit

Inclination

99.0

Latest

Satellite identification and parameters

Extended collection of information and parameters for FENGYUN 1C DEB.

Object identification

Identified? True

Debris? True

Object name: FENGYUN 1C DEB

International designator: 1999-025ZM

Object number (NORAD): 30300

Object ID (CCSDS): 30300

Country: PEOPLES REPUBLIC OF CHINA (PRC)

Current information (Y/N): Y

RCS size: SMALL

Orbital parameters

Period: 100.922 minutes

Inclination: 99.0414 deg

SMA: 7180.435 km

Apoapsis: 855.663 km

Periapsis: 748.938 km

RAAN: 56.4895 deg

Eccentricy: 0.00743165

Argument of periapsis: 293.0535 deg

Mean anomaly: 128.9384 deg

Mean motion: 14.26844337 rev/day

Mean motion (dot): 0.00007947 rev/day2

B* drag term: 0.0031977318 1/REarth

Two-line elements (TLE)

Creation date: Dec. 13, 2025, 5:47 p.m.

Reference frame: TEME

Reference center: EARTH

Epoch: Dec. 13, 2025, 3:13 a.m. UTC

TLE line 0: 0 FENGYUN 1C DEB

TLE line 1: 1 30300U 99025ZM 25347.13431942 .00007947 00000-0 31977-2 0 9995

TLE line 2: 2 30300 99.0414 56.4895 0074317 293.0535 128.9384 14.26844337969901

Live tracking on map

Real-time ground track for satellite FENGYUN 1C DEB.

In-orbit conjunctions

A list of the most updated potential collisions computed for object FENGYUN 1C DEB.

Target Orbit TCA Probability of collision Miss distance Type
METEOR 1-26 LEO 2025-12-09 00:01:11 0.0001838013 360.0 (m) PAYLOAD
SL-8 R/B LEO 2025-03-12 09:54:40 0.002270112 52.0 (m) ROCKET BODY
IRIDIUM 38 LEO 2025-02-08 19:07:38 0.0001109983 382.0 (m) PAYLOAD
SL-8 DEB LEO 2024-06-20 15:37:44 0.0001011143 277.0 (m) DEBRIS

Associated space launch

Chinese polar orbiting meteorological satellite

FENGYUN 1C DEB was lifted into orbit during the mission ‘Long March 4B | Feng Yun 1C’, on board a Long March 4B space rocket.

The launch took place on May 10, 1999, 1:33 a.m. from Launch Complex 7.

For more information about the launch, click the button.

Launch to space Long March 4B | Feng Yun 1C
Long March 4B | Feng Yun 1C

Agency: N/A

Status: Launch Successful

Launch date: May 10, 1999, 1:33 a.m. UTC

Rocket: Long March 4B

Launch pad: Launch Complex 7

Location: Taiyuan Satellite Launch Center, People's Republic of China

...

Latest news about this satellite

There are no fresh news available about this satellite. Check back as we update our databases every day.


Newsletter sign-up

Weekly statistics, charts and insights to help you stay on top of the space industry.